Location: Aldenham
(51.6667°N, 0.3500°W)
Time: 03:24:03
(UTC+00:00)

A-11 Canister half - Pass Details

Date: 20 February 2026
Orbit: 1512 x 1687 km, 47.2° (Epoch: 7 March)

Event Time Altitude Azimuth Distance (km) Brightness Sun altitude
Rises 00:10:14 0° 271° (W) 4,925 11.7 -49.3°
Enters shadow 00:11:18 - 271° (W) 4,594 11.5 -49.3°
Reaches altitude 10° 00:13:27 10° 269° (W) 3,923 - -49.3°
Maximum altitude 00:23:21 66° 191° (S) 1,751 - -49.3°
Drops below altitude 10° 00:32:53 10° 112° (ESE) 3,790 - -49.2°
Sets 00:35:56 0° 109° (ESE) 4,751 - -49.1°
